Meteo pe oră la Dadony

Astăzi, 10 Aprilie, Sâmbătă

Timp Temperatura Precipitaţii Vânt Presiune Umiditate
00:00 +1°C° 0 mm 5 m/s 749 mmHg 73%
01:00 +1°C° 0 mm 5 m/s 749 mmHg 73%
02:00 +1°C° 0 mm 5 m/s 749 mmHg 72%
03:00 +1°C° 0 mm 5 m/s 749 mmHg 72%
04:00 +1°C° 0 mm 5 m/s 749 mmHg 72%
05:00 +1°C° 0 mm 5 m/s 749 mmHg 72%
06:00 +2°C° 0 mm 5 m/s 749 mmHg 70%
07:00 +2°C° 0 mm 5 m/s 749 mmHg 67%
08:00 +3°C° 0 mm 5 m/s 749 mmHg 65%
09:00 +4°C° 0 mm 6 m/s 749 mmHg 60%
10:00 +7°C° 0 mm 6 m/s 749 mmHg 55%
11:00 +8°C° 0 mm 6 m/s 749 mmHg 51%
12:00 +9°C° 0 mm 6 m/s 749 mmHg 50%
13:00 +10°C° 0 mm 6 m/s 749 mmHg 49%
14:00 +10°C° 0 mm 6 m/s 749 mmHg 48%
15:00 +10°C° 0 mm 6 m/s 748 mmHg 49%
16:00 +10°C° 0 mm 5 m/s 748 mmHg 50%
17:00 +10°C° 0 mm 5 m/s 748 mmHg 51%
18:00 +9°C° 0 mm 5 m/s 749 mmHg 55%
19:00 +8°C° 0 mm 4 m/s 749 mmHg 58%
20:00 +7°C° 0 mm 4 m/s 749 mmHg 61%
21:00 +8°C° 0 mm 3 m/s 750 mmHg 65%
22:00 +7°C° 0 mm 3 m/s 750 mmHg 69%
23:00 +7°C° 0 mm 2 m/s 750 mmHg 72%

Mâine, 11 Aprilie, Duminică

Timp Temperatura Precipitaţii Vânt Presiune Umiditate
00:00 +6°C° 0.1 mm 2 m/s 751 mmHg 75%
01:00 +6°C° 0.1 mm 2 m/s 751 mmHg 78%
02:00 +5°C° 0.1 mm 2 m/s 751 mmHg 81%
03:00 +5°C° 0 mm 2 m/s 751 mmHg 83%
04:00 +6°C° 0 mm 1 m/s 752 mmHg 85%
05:00 +5°C° 0 mm 1 m/s 752 mmHg 87%
06:00 +6°C° 0 mm 1 m/s 752 mmHg 84%
07:00 +7°C° 0 mm 1 m/s 753 mmHg 81%
08:00 +7°C° 0 mm 1 m/s 753 mmHg 78%
09:00 +8°C° 0 mm 2 m/s 753 mmHg 72%
10:00 +10°C° 0 mm 2 m/s 754 mmHg 66%
11:00 +12°C° 0 mm 2 m/s 754 mmHg 60%
12:00 +13°C° 0 mm 2 m/s 754 mmHg 58%
13:00 +13°C° 0 mm 3 m/s 754 mmHg 56%
14:00 +14°C° 0 mm 3 m/s 754 mmHg 54%
15:00 +15°C° 0 mm 2 m/s 754 mmHg 56%
16:00 +15°C° 0 mm 2 m/s 754 mmHg 58%
17:00 +14°C° 0 mm 2 m/s 754 mmHg 60%
18:00 +13°C° 0 mm 2 m/s 755 mmHg 65%
19:00 +12°C° 0 mm 2 m/s 755 mmHg 71%
20:00 +9°C° 0 mm 2 m/s 755 mmHg 77%
21:00 +9°C° 0 mm 2 m/s 756 mmHg 78%
22:00 +8°C° 0 mm 2 m/s 756 mmHg 79%
23:00 +7°C° 0 mm 2 m/s 756 mmHg 81%

Poimâine, 12 Aprilie, Luni

Timp Temperatura Precipitaţii Vânt Presiune Umiditate
00:00 +7°C° 0 mm 2 m/s 756 mmHg 82%
01:00 +7°C° 0 mm 2 m/s 756 mmHg 82%
02:00 +6°C° 0 mm 2 m/s 756 mmHg 83%
03:00 +6°C° 0 mm 2 m/s 756 mmHg 84%
04:00 +5°C° 0 mm 2 m/s 756 mmHg 84%
05:00 +5°C° 0 mm 2 m/s 756 mmHg 84%
06:00 +6°C° 0 mm 2 m/s 756 mmHg 78%
07:00 +8°C° 0 mm 3 m/s 756 mmHg 71%
08:00 +9°C° 0 mm 3 m/s 756 mmHg 64%
09:00 +11°C° 0 mm 3 m/s 756 mmHg 58%
10:00 +12°C° 0 mm 3 m/s 755 mmHg 51%
11:00 +14°C° 0 mm 4 m/s 755 mmHg 45%
12:00 +15°C° 0 mm 4 m/s 754 mmHg 42%
13:00 +16°C° 0 mm 3 m/s 754 mmHg 40%
14:00 +17°C° 0 mm 3 m/s 753 mmHg 37%
15:00 +16°C° 0 mm 3 m/s 753 mmHg 41%
16:00 +14°C° 0 mm 3 m/s 752 mmHg 44%
17:00 +15°C° 0 mm 2 m/s 752 mmHg 47%
18:00 +13°C° 0 mm 2 m/s 752 mmHg 54%
19:00 +11°C° 0 mm 3 m/s 752 mmHg 61%
20:00 +9°C° 0 mm 3 m/s 752 mmHg 68%
21:00 +9°C° 0 mm 2 m/s 752 mmHg 73%
22:00 +9°C° 0 mm 2 m/s 752 mmHg 78%
23:00 +8°C° 0 mm 2 m/s 751 mmHg 83%

13 Aprilie, Marţi

Timp Temperatura Precipitaţii Vânt Presiune Umiditate
00:00 +8°C° 0.1 mm 2 m/s 751 mmHg 87%
01:00 +8°C° 0.1 mm 2 m/s 751 mmHg 90%
02:00 +8°C° 0.1 mm 2 m/s 751 mmHg 94%
03:00 +9°C° 0.2 mm 1 m/s 751 mmHg 95%
04:00 +9°C° 0.2 mm 1 m/s 751 mmHg 96%
05:00 +9°C° 0.2 mm 1 m/s 750 mmHg 98%
06:00 +9°C° 0.2 mm 1 m/s 750 mmHg 97%
07:00 +9°C° 0.2 mm 1 m/s 750 mmHg 97%
08:00 +9°C° 0.2 mm 1 m/s 750 mmHg 97%
09:00 +10°C° 0 mm 1 m/s 750 mmHg 95%
10:00 +10°C° 0 mm 1 m/s 750 mmHg 93%
11:00 +11°C° 0 mm 1 m/s 750 mmHg 91%
12:00 +12°C° 0 mm 1 m/s 749 mmHg 86%
13:00 +13°C° 0 mm 1 m/s 749 mmHg 82%
14:00 +14°C° 0 mm 1 m/s 749 mmHg 77%
15:00 +13°C° 0 mm 1 m/s 749 mmHg 79%
16:00 +13°C° 0 mm 1 m/s 748 mmHg 82%
17:00 +12°C° 0 mm 1 m/s 748 mmHg 84%
18:00 +12°C° 0 mm 1 m/s 748 mmHg 86%
19:00 +11°C° 0 mm 1 m/s 748 mmHg 89%
20:00 +11°C° 0 mm 1 m/s 748 mmHg 91%
21:00 +10°C° 0 mm 1 m/s 748 mmHg 92%
22:00 +10°C° 0 mm 1 m/s 748 mmHg 93%
23:00 +10°C° 0 mm 1 m/s 748 mmHg 94%

14 Aprilie, Miercuri

Timp Temperatura Precipitaţii Vânt Presiune Umiditate
00:00 +10°C° 0 mm 1 m/s 747 mmHg 95%
01:00 +9°C° 0 mm 1 m/s 747 mmHg 96%
02:00 +9°C° 0 mm 1 m/s 747 mmHg 96%
03:00 +9°C° 0 mm 1 m/s 747 mmHg 97%
04:00 +9°C° 0 mm 1 m/s 747 mmHg 97%
05:00 +9°C° 0 mm 1 m/s 747 mmHg 97%
06:00 +10°C° 0.1 mm 1 m/s 747 mmHg 97%
07:00 +9°C° 0.1 mm 2 m/s 747 mmHg 96%
08:00 +10°C° 0.1 mm 2 m/s 747 mmHg 95%
09:00 +10°C° 0.1 mm 2 m/s 747 mmHg 91%
10:00 +12°C° 0.1 mm 2 m/s 746 mmHg 88%
11:00 +13°C° 0.1 mm 2 m/s 746 mmHg 84%
12:00 +14°C° 0.2 mm 2 m/s 746 mmHg 80%
13:00 +13°C° 0.2 mm 3 m/s 746 mmHg 75%
14:00 +14°C° 0.2 mm 3 m/s 746 mmHg 70%
15:00 +14°C° 0.1 mm 3 m/s 746 mmHg 69%
16:00 +15°C° 0.1 mm 2 m/s 746 mmHg 68%
17:00 +15°C° 0.1 mm 2 m/s 745 mmHg 67%
18:00 +13°C° 0 mm 2 m/s 746 mmHg 72%
19:00 +12°C° 0 mm 2 m/s 746 mmHg 76%
20:00 +11°C° 0 mm 1 m/s 746 mmHg 81%
21:00 +11°C° 0 mm 1 m/s 746 mmHg 81%
22:00 +11°C° 0 mm 1 m/s 746 mmHg 82%
23:00 +10°C° 0 mm 1 m/s 746 mmHg 82%

15 Aprilie, Joi

Timp Temperatura Precipitaţii Vânt Presiune Umiditate
00:00 +10°C° 0 mm 1 m/s 746 mmHg 85%
01:00 +10°C° 0 mm 1 m/s 746 mmHg 87%
02:00 +9°C° 0 mm 1 m/s 746 mmHg 90%
03:00 +9°C° 0 mm 1 m/s 746 mmHg 91%
04:00 +9°C° 0 mm 1 m/s 746 mmHg 91%
05:00 +9°C° 0 mm 1 m/s 746 mmHg 92%
06:00 +10°C° 0 mm 1 m/s 746 mmHg 88%
07:00 +11°C° 0 mm 1 m/s 746 mmHg 84%
08:00 +12°C° 0 mm 1 m/s 747 mmHg 80%
09:00 +13°C° 0 mm 1 m/s 747 mmHg 76%
10:00 +14°C° 0 mm 2 m/s 746 mmHg 71%
11:00 +15°C° 0 mm 2 m/s 746 mmHg 67%
12:00 +14°C° 0.1 mm 3 m/s 746 mmHg 67%
13:00 +14°C° 0.1 mm 4 m/s 746 mmHg 67%
14:00 +14°C° 0.1 mm 4 m/s 746 mmHg 67%
15:00 +12°C° 0.1 mm 5 m/s 746 mmHg 71%
16:00 +10°C° 0.1 mm 5 m/s 746 mmHg 75%
17:00 +8°C° 0.1 mm 5 m/s 747 mmHg 80%
18:00 +7°C° 0 mm 5 m/s 747 mmHg 80%
19:00 +5°C° 0 mm 6 m/s 747 mmHg 80%
20:00 +4°C° 0 mm 6 m/s 748 mmHg 81%
21:00 +3°C° 0 mm 6 m/s 748 mmHg 78%
22:00 +3°C° 0 mm 6 m/s 748 mmHg 74%
23:00 +3°C° 0 mm 6 m/s 748 mmHg 71%
Arată mai mult

Formular de consimțământ

Meteoprog și furnizorii noștri de servicii pot stoca și accesa date personale, precum cookies, identificatori de dispozitiv sau alte tehnologii similare pe dispozitivul dumneavoastră și procesa astfel de date pentru a personaliza conținutul și reclamele, dar și pentru a oferi caracteristici de social media și pentru a analiza traficul.

  • Stocarea și/sau accesarea informațiilor pe dispozitivul dumneavoastră

    Cookies, identificatori de dispozitiv sau alte informații pot fi stocate sau accesate pe dispozitiv în scopurile indicate mai sus.

  • Reclame și conținut personalizat, evaluarea reclamelor și a conținutului, informații despre audiențe și dezvoltarea produselor

    Reclamele și conținutul pot fi personalizate pe baza unui profil. Pot fi adăugate date suplimentare pentru a personaliza mai bine reclamele și conținutul. Performanța reclamelor și conținutului poate fi măsurată. Pot fi obținute informații despre utilizatorii care au văzut reclamele și conținutul. Aceste date pot fi utilizate pentru a dezvolta sau îmbunătăți experiența utilizatorilor, sistemele și software-ul.

Dând clic pe ‘Sunt de acord’, permiteți utilizarea cookie-urilor menționate, a identificatorilor de dispozitiv, balizelor web sau altor tehnologii similare. Setările pot fi modificate din browser-ul dispozitivului dumneavoastră.

În anumite scopuri, interesele legitime pot prima asupra consimțământului. Puteți citi mai multe informații în acest sens în Politica privind Confidențialitatea Datelor și Cookie.